Location: Carnières
(50.1682°N, 3.3474°E)
Time: 05:25:32
(UTC+00:00)

MOZ.5/SAFIR/RUBIN 5/SL-8 - Pass Details

Date: 09 August 2024
Orbit: 671 x 698 km, 98.3° (Epoch: 08 September)

Event Time Altitude Azimuth Distance (km) Brightness Sun altitude
Exits shadow 03:03:37 10° 265° (W) 2,165 5.9 -11.9°
Reaches altitude 10° 03:03:55 10° 269° (W) 2,148 5.9 -11.8°
Maximum altitude 03:04:29 10° 276° (W) 2,137 5.9 -11.8°
Drops below altitude 10° 03:05:03 10° 283° (WNW) 2,152 6.0 -11.7°
Sets 03:09:50 0° 326° (NNW) 3,086 7.2 -11.1°
